PBO Station Position Time Series. Reference Frame : NAM14
Format Version,1.1.1
4-character ID,CHWT
Station name,CHWT_CHIG_AK2020
Begin Date, 2022-04-10
End Date, 2023-06-26
Release Date, 2023-06-27
Reference position, 56.0479015287 North Latitude, -156.6918342875 East Longitude, 147.89644 meters elevation,
Date, North (mm), East (mm), Vertical (mm), North Std. Deviation (mm), East Std. Deviation (mm),              Vertical Std. Deviation (mm), Quality,
2022-04-10,0.00, 0.00, 0.00, 3.61, 2.79, 9.43, suppf,
2022-04-11,1.59, -2.00, -10.80, 3.64, 2.79, 9.59, suppf,
2022-04-12,0.90, -0.96, -2.62, 3.45, 2.63, 9.17, suppf,
2022-04-13,1.59, -2.41, -8.12, 3.63, 2.78, 9.49, suppf,
2022-04-14,-0.53, -0.01, -3.63, 4.00, 3.01, 9.87, suppf,
2022-04-15,0.58, -1.75, 0.71, 3.62, 2.76, 9.59, suppf,
2022-04-16,-0.26, -2.55, -0.92, 3.48, 2.67, 9.37, suppf,
2022-04-17,0.67, -3.38, -3.53, 3.46, 2.62, 9.16, suppf,
2022-04-18,-0.33, -2.54, 0.12, 3.50, 2.65, 9.18, suppf,
2022-04-19,-0.36, -1.70, 5.07, 3.50, 2.65, 9.17, suppf,
2022-04-20,0.79, -1.37, -1.11, 3.55, 2.71, 9.36, suppf,
2022-04-21,-0.50, -0.44, 7.22, 3.69, 2.82, 9.52, suppf,
2022-04-22,0.17, -2.20, 2.86, 3.62, 2.73, 9.39, suppf,
2022-04-23,-0.78, -2.07, 5.30, 3.50, 2.71, 9.31, suppf,
2022-04-24,-1.12, -1.19, 4.20, 3.50, 2.66, 9.21, suppf,
2022-04-25,-0.17, -0.73, 0.72, 3.50, 2.67, 9.18, suppf,
2022-04-26,0.08, -2.11, 4.78, 3.53, 2.65, 9.25, suppf,
2022-04-27,-0.88, -1.64, 4.26, 3.63, 2.77, 9.65, suppf,
2022-04-28,-0.50, -1.09, -3.65, 3.87, 2.99, 10.05, suppf,
2022-04-29,1.02, -1.60, 3.96, 4.07, 3.18, 10.58, suppf,
2022-04-30,-0.29, -2.35, 1.74, 3.70, 2.78, 9.45, suppf,
2022-05-01,-2.01, -1.16, 1.34, 3.61, 2.79, 9.43, suppf,
2022-05-02,-2.09, -2.26, -0.80, 3.63, 2.74, 9.42, suppf,
2022-05-03,-3.07, -1.04, 2.97, 3.70, 2.84, 9.72, suppf,
2022-05-04,-2.32, -1.39, 9.03, 3.75, 2.84, 9.71, suppf,
2022-05-05,-1.41, -1.17, 2.91, 3.54, 2.68, 9.20, suppf,
2022-05-06,-0.86, -1.39, 1.75, 3.50, 2.66, 9.18, suppf,
2022-05-07,-0.58, -1.87, 4.35, 3.50, 2.67, 9.14, suppf,
2022-05-08,-0.10, -0.65, 8.60, 3.54, 2.71, 9.25, suppf,
2022-05-09,-1.17, -1.87, 7.66, 3.58, 2.70, 9.28, suppf,
2022-05-10,-1.96, -1.45, 0.63, 3.48, 2.61, 9.15, suppf,
2022-05-11,-0.84, -1.76, 9.48, 3.57, 2.76, 9.38, suppf,
2022-05-12,-1.27, -0.97, 3.95, 3.57, 2.73, 9.40, suppf,
2022-05-13,-1.81, -1.51, 4.79, 3.58, 2.75, 9.41, suppf,
2022-05-14,-3.05, -0.85, 7.45, 3.56, 2.75, 9.36, suppf,
2022-05-15,-2.32, -1.71, 5.15, 3.54, 2.67, 9.24, suppf,
2022-05-16,-2.16, -0.99, 8.55, 3.48, 2.66, 9.22, suppf,
2022-05-17,-2.00, -0.07, 5.74, 3.51, 2.69, 9.23, suppf,
2022-05-18,-3.78, -0.19, -0.90, 3.46, 2.62, 9.15, suppf,
2022-05-19,-1.91, 0.10, -0.22, 3.62, 2.73, 9.44, suppf,
2022-05-20,-4.71, -1.06, -3.88, 3.67, 2.78, 9.61, suppf,
2022-05-21,-3.66, -1.98, 1.33, 3.56, 2.72, 9.39, suppf,
2022-05-22,-3.64, -1.04, -4.00, 3.62, 2.79, 9.43, suppf,
2022-05-23,-2.59, -0.89, -3.23, 3.50, 2.64, 9.18, suppf,
2022-05-24,-3.20, -1.63, 0.27, 3.50, 2.67, 9.23, suppf,
2022-05-25,-2.92, -0.87, 5.08, 3.52, 2.70, 9.22, suppf,
2022-05-26,-4.01, -0.17, 1.97, 3.58, 2.75, 9.48, suppf,
2022-05-27,-3.75, -0.53, 6.91, 3.65, 2.79, 9.51, suppf,
2022-05-28,-3.34, 0.47, 6.56, 3.69, 2.83, 9.38, suppf,
2022-05-29,-4.30, 0.58, -0.39, 3.67, 2.82, 9.39, suppf,
2022-05-30,-4.37, 0.27, 2.35, 3.65, 2.80, 9.41, suppf,
2022-05-31,-2.11, 1.64, 1.32, 3.71, 2.88, 9.61, suppf,
2022-06-01,-3.18, 0.08, -6.16, 3.51, 2.70, 9.16, suppf,
2022-06-02,-4.20, 0.95, -1.66, 3.53, 2.70, 9.30, suppf,
2022-06-03,-4.66, -0.50, 5.42, 3.58, 2.78, 9.43, suppf,
2022-06-04,-3.20, -1.32, 2.05, 3.45, 2.64, 9.06, suppf,
2022-06-05,-2.28, 0.59, 4.29, 3.51, 2.70, 9.24, suppf,
2022-06-06,-2.64, -0.82, 4.98, 3.57, 2.79, 9.36, suppf,
2022-06-07,-3.14, -1.29, 3.83, 3.67, 2.82, 9.51, suppf,
2022-06-08,-3.90, 0.67, 10.10, 3.53, 2.71, 9.31, suppf,
2022-06-09,-3.87, -1.30, 9.66, 3.60, 2.73, 9.27, suppf,
2022-06-10,-2.86, -1.43, 1.80, 3.44, 2.60, 9.08, suppf,
2022-06-11,-2.05, -0.72, 1.56, 3.49, 2.67, 9.16, suppf,
2022-06-12,-3.64, -0.12, -3.61, 3.59, 2.77, 9.45, suppf,
2022-06-13,-2.68, -0.92, -1.10, 3.48, 2.69, 9.16, suppf,
2022-06-14,-23.28, 1.23, -40.42, 52.04, 202.06, 142.19, suppf,
2022-06-15,-3.82, 0.20, -1.02, 3.64, 2.83, 9.39, suppf,
2022-06-16,-3.73, -0.88, -6.47, 3.42, 2.61, 9.02, suppf,
2022-06-17,-4.62, -1.24, -2.86, 3.47, 2.66, 9.23, suppf,
2022-06-18,-2.24, -0.39, -2.66, 3.44, 2.64, 9.16, suppf,
2022-06-19,-2.96, -1.02, -2.66, 2.18, 1.42, 6.96, suppf,
2022-06-20,-2.24, -1.15, -3.32, 2.17, 1.41, 6.91, suppf,
2022-06-21,-3.12, -0.46, -2.98, 2.17, 1.41, 6.91, suppf,
2022-06-22,-2.69, -0.09, -0.85, 2.17, 1.41, 6.91, suppf,
2022-06-23,-1.87, -0.18, -1.01, 2.16, 1.42, 6.92, suppf,
2022-06-24,-2.80, -1.49, -1.25, 2.18, 1.45, 7.20, suppf,
2022-06-25,-3.98, 0.53, 1.82, 2.17, 1.41, 6.93, suppf,
2022-06-26,-2.30, -1.39, -8.41, 2.19, 1.42, 6.99, suppf,
2022-06-27,-3.06, -0.82, -9.59, 2.17, 1.42, 6.94, suppf,
2022-06-28,-2.90, -2.18, -7.59, 2.16, 1.41, 6.91, suppf,
2022-06-29,-1.53, -1.49, -2.12, 2.17, 1.42, 6.93, suppf,
2022-06-30,-2.52, 0.20, -2.11, 2.24, 1.46, 7.14, suppf,
2022-07-01,-3.54, -0.12, -5.10, 2.19, 1.42, 6.98, suppf,
2022-07-02,-4.32, -0.32, -0.47, 2.18, 1.42, 6.96, suppf,
2022-07-03,-4.92, 0.32, -3.07, 2.17, 1.41, 6.92, suppf,
2022-07-04,-4.34, -0.56, -4.31, 2.28, 1.48, 7.31, suppf,
2022-07-05,-3.53, -0.40, 1.57, 2.28, 1.50, 7.37, suppf,
2022-07-06,-4.03, 0.35, -3.72, 2.21, 1.45, 7.24, suppf,
2022-07-07,-4.82, -0.46, -1.15, 2.18, 1.42, 6.94, suppf,
2022-07-08,-3.56, -0.15, 0.02, 2.17, 1.41, 6.93, suppf,
2022-07-09,-3.49, 0.34, 1.05, 2.18, 1.41, 6.93, suppf,
2022-07-10,-4.37, -1.13, -0.60, 2.17, 1.42, 6.93, suppf,
2022-07-11,-4.50, 0.54, 2.63, 2.17, 1.42, 6.94, suppf,
2022-07-12,-4.14, 0.27, -3.95, 2.27, 1.47, 7.29, suppf,
2022-07-13,-2.73, 0.21, -2.58, 2.18, 1.42, 6.98, suppf,
2022-07-14,-4.00, 1.02, -3.59, 2.22, 1.45, 7.14, suppf,
2022-07-15,-4.18, 0.54, 0.92, 2.22, 1.45, 7.11, suppf,
2022-07-16,-4.43, -0.42, -7.29, 2.28, 1.48, 7.40, suppf,
2022-07-17,-4.50, -0.28, 9.58, 2.21, 1.46, 7.15, suppf,
2022-07-18,-3.53, 0.12, 5.97, 2.23, 1.44, 7.21, suppf,
2022-07-19,-7.74, -2.16, 2.46, 2.21, 1.44, 7.07, suppf,
2022-07-20,-5.78, -0.82, 5.03, 2.18, 1.41, 6.95, suppf,
2022-07-21,-5.30, 0.37, -4.27, 2.24, 1.46, 7.23, suppf,
2022-07-22,-5.08, -0.13, 9.31, 2.18, 1.42, 6.94, suppf,
2022-07-23,-5.09, 1.16, 4.15, 2.18, 1.42, 6.97, suppf,
2022-07-24,-4.21, 0.02, -1.72, 2.18, 1.42, 6.98, suppf,
2022-07-25,-3.36, 2.81, -0.48, 2.20, 1.43, 7.06, suppf,
2022-07-26,-4.35, 0.87, 4.72, 2.17, 1.41, 6.92, suppf,
2022-07-27,-3.73, -0.95, 3.37, 2.16, 1.41, 6.93, suppf,
2022-07-28,-3.20, -0.75, 2.30, 2.16, 1.41, 6.92, suppf,
2022-07-29,-5.08, 0.43, 7.53, 2.24, 1.46, 7.21, suppf,
2022-07-30,-4.45, 0.52, -3.01, 2.19, 1.42, 7.05, suppf,
2022-07-31,-2.94, 0.97, 3.16, 2.19, 1.42, 7.00, suppf,
2022-08-01,-5.23, 0.91, 12.79, 2.20, 1.43, 7.12, suppf,
2022-08-02,-4.26, -0.29, 10.97, 2.31, 1.46, 7.13, suppf,
2022-08-03,-7.32, 0.44, 6.95, 2.26, 1.44, 7.13, suppf,
2022-08-04,-5.18, 0.61, -11.19, 2.30, 1.47, 7.32, suppf,
2022-08-05,-6.42, -0.26, 3.11, 2.19, 1.42, 7.08, suppf,
2022-08-06,-4.05, 1.11, 13.78, 2.17, 1.41, 7.00, suppf,
2022-08-07,-3.92, -0.70, 9.96, 2.18, 1.42, 7.01, suppf,
2022-08-08,-5.98, -1.74, 3.94, 2.16, 1.41, 6.95, suppf,
2022-08-09,-6.92, 0.96, -0.14, 2.19, 1.43, 7.09, suppf,
2022-08-10,-5.20, 3.37, 3.54, 2.23, 1.44, 7.17, suppf,
2022-08-11,-6.28, 0.48, 7.39, 2.22, 1.45, 7.19, suppf,
2022-08-12,-6.42, 1.24, 5.70, 2.21, 1.44, 7.14, suppf,
2022-08-13,-3.19, 0.80, 7.35, 2.16, 1.40, 6.90, suppf,
2022-08-14,-4.27, 1.10, 13.04, 2.15, 1.41, 6.91, suppf,
2022-08-15,-5.13, 0.22, 3.49, 2.15, 1.40, 6.91, suppf,
2022-08-16,-5.71, 0.51, 11.74, 2.16, 1.40, 6.93, suppf,
2022-08-17,-5.88, 0.42, 8.13, 2.17, 1.41, 7.00, suppf,
2022-08-18,-4.87, -0.06, 3.51, 2.16, 1.41, 6.96, suppf,
2022-08-19,-4.76, -1.11, 8.53, 2.24, 1.45, 7.17, suppf,
2022-08-20,-6.83, -2.22, 7.33, 2.15, 1.41, 6.93, suppf,
2022-08-21,-4.81, -0.39, 5.85, 2.17, 1.41, 7.00, suppf,
2022-08-22,-4.52, -0.59, -1.94, 2.17, 1.42, 7.03, suppf,
2022-08-23,-5.51, 0.31, 3.66, 2.28, 1.50, 7.42, suppf,
2022-08-24,-3.81, -0.48, 4.99, 2.28, 1.51, 7.44, suppf,
2022-08-25,-4.99, -0.65, 7.05, 2.23, 1.45, 7.08, suppf,
2022-08-26,-4.50, 0.71, 15.55, 2.26, 1.45, 7.15, suppf,
2022-08-27,-4.86, -1.95, 9.05, 2.22, 1.43, 6.99, suppf,
2022-08-28,-7.53, 0.86, 10.57, 2.24, 1.43, 7.03, suppf,
2022-08-29,-7.03, 1.21, 8.92, 2.21, 1.41, 6.99, suppf,
2022-08-30,-6.33, -0.05, 12.03, 2.17, 1.41, 6.97, suppf,
2022-08-31,-5.34, -0.31, 6.03, 2.20, 1.44, 7.14, suppf,
2022-09-01,-6.53, 0.43, 11.68, 2.16, 1.41, 6.96, suppf,
2022-09-02,-7.77, -0.31, 5.15, 2.17, 1.41, 6.98, suppf,
2022-09-03,-6.39, 0.83, 9.52, 2.17, 1.40, 6.95, suppf,
2022-09-04,-7.04, 0.91, 10.32, 2.17, 1.41, 6.97, suppf,
2022-09-05,-5.71, -0.58, 8.28, 2.15, 1.41, 6.93, suppf,
2022-09-06,-6.00, 0.26, 0.60, 2.15, 1.41, 6.96, suppf,
2022-09-07,-3.97, -0.37, -4.66, 2.15, 1.41, 6.95, suppf,
2022-09-08,-2.51, 2.73, 5.65, 2.26, 1.48, 7.18, suppf,
2022-09-09,-4.60, 1.36, 2.11, 2.23, 1.46, 7.18, suppf,
2022-09-10,-5.36, -0.15, 2.86, 2.20, 1.44, 7.05, suppf,
2022-09-11,-3.55, 0.37, 0.17, 2.20, 1.45, 7.08, suppf,
2022-09-12,-2.95, 0.32, 2.79, 2.20, 1.44, 7.08, suppf,
2022-09-13,-5.92, 0.33, 7.24, 2.19, 1.43, 7.00, suppf,
2022-09-14,-4.55, 0.34, 5.86, 2.24, 1.46, 7.32, suppf,
2022-09-15,-5.70, -1.31, 1.63, 2.24, 1.47, 7.37, suppf,
2022-09-16,-5.94, 0.49, 4.41, 2.30, 1.50, 7.47, suppf,
2022-09-17,-2.59, 0.34, 10.79, 2.18, 1.43, 7.09, suppf,
2022-09-18,-4.39, -0.10, -0.07, 2.20, 1.42, 7.09, suppf,
2022-09-19,-3.97, 0.89, -0.42, 2.17, 1.40, 6.95, suppf,
2022-09-20,-5.58, 0.40, 1.27, 2.17, 1.41, 6.95, suppf,
2022-09-21,-5.10, 1.12, 8.30, 2.15, 1.41, 6.92, suppf,
2022-09-22,-5.87, 0.19, 7.00, 2.21, 1.44, 7.17, suppf,
2022-09-23,-5.92, -0.08, 10.03, 2.19, 1.44, 7.11, suppf,
2022-09-24,-5.32, -0.50, 7.55, 2.17, 1.42, 6.98, suppf,
2022-09-25,-7.43, 0.32, 6.48, 2.16, 1.40, 6.93, suppf,
2022-09-26,-6.13, 0.13, 6.40, 2.17, 1.42, 6.99, suppf,
2022-09-27,-6.81, 1.32, 8.70, 2.19, 1.43, 7.06, suppf,
2022-09-28,-6.53, 0.03, 4.89, 2.25, 1.46, 7.13, suppf,
2022-09-29,-7.21, -0.15, 10.13, 2.25, 1.47, 7.18, suppf,
2022-09-30,-6.39, 1.34, 8.04, 2.19, 1.43, 7.07, suppf,
2022-10-01,-6.93, -1.02, 5.69, 2.17, 1.42, 6.99, suppf,
2022-10-02,-4.20, 0.78, 8.48, 2.16, 1.41, 6.95, suppf,
2022-10-03,-3.21, 0.64, 7.89, 2.16, 1.41, 6.96, suppf,
2022-10-04,-3.18, 0.22, -1.41, 2.15, 1.41, 6.94, suppf,
2022-10-05,-5.32, 0.65, 4.70, 2.15, 1.40, 6.90, suppf,
2022-10-06,-5.64, 0.08, 1.50, 2.21, 1.45, 7.28, suppf,
2022-10-07,-5.98, -0.29, 6.74, 2.19, 1.45, 7.22, suppf,
2022-10-08,-5.67, 0.35, 4.03, 2.19, 1.44, 7.11, suppf,
2022-10-09,-6.41, 0.29, 12.69, 2.17, 1.43, 7.01, suppf,
2022-10-10,-2.35, 0.19, 17.56, 2.17, 1.42, 6.99, suppf,
2022-10-11,-4.61, 1.95, 15.94, 2.18, 1.44, 7.13, suppf,
2022-10-12,-3.87, 1.30, 6.72, 2.21, 1.47, 7.43, suppf,
2022-10-13,-5.33, 1.72, 4.76, 2.22, 1.47, 7.31, suppf,
2022-10-14,-6.07, 0.56, 12.90, 2.19, 1.44, 7.20, suppf,
2022-10-15,-5.61, 1.82, 7.36, 2.17, 1.42, 7.00, suppf,
2022-10-16,-8.17, 1.31, 3.09, 2.16, 1.40, 6.93, suppf,
2022-10-17,-6.10, 0.08, 3.41, 2.15, 1.40, 6.90, suppf,
2022-10-18,-4.50, 0.41, 9.28, 2.26, 1.48, 7.36, suppf,
2022-10-19,-3.60, 0.03, 14.39, 2.30, 1.50, 7.68, suppf,
2022-10-20,-3.92, 0.99, 8.78, 2.24, 1.44, 7.10, suppf,
2022-10-21,-5.98, 0.77, 11.45, 2.20, 1.42, 7.02, suppf,
2022-10-22,-5.79, 0.29, 13.79, 2.18, 1.41, 6.99, suppf,
2022-10-23,-6.19, 1.33, 16.39, 2.15, 1.41, 6.96, suppf,
2022-10-24,-5.92, 1.76, 8.43, 2.18, 1.43, 7.05, suppf,
2022-10-25,-2.89, 1.98, 8.82, 2.16, 1.42, 6.97, suppf,
2022-10-26,-5.29, 0.56, 16.06, 2.22, 1.46, 7.16, suppf,
2022-10-27,-4.42, -1.10, 17.78, 2.26, 1.47, 7.32, suppf,
2022-10-28,-3.32, 1.10, 12.43, 2.22, 1.44, 7.08, suppf,
2022-10-29,-4.78, 1.47, 10.75, 2.16, 1.42, 6.98, suppf,
2022-10-30,-5.09, -0.35, 13.11, 2.14, 1.42, 6.89, suppf,
2022-10-31,-3.28, 1.00, 19.08, 2.16, 1.41, 6.91, suppf,
2022-11-01,-3.04, 0.01, 11.17, 2.15, 1.41, 6.92, suppf,
2022-11-02,-4.01, -0.40, 6.17, 2.22, 1.46, 7.31, suppf,
2022-11-03,-3.39, 0.44, 15.74, 2.21, 1.45, 7.39, suppf,
2022-11-04,-3.62, -0.40, 10.10, 2.18, 1.44, 7.09, suppf,
2022-11-05,-1.77, 0.13, 9.36, 2.15, 1.42, 6.92, suppf,
2022-11-06,-1.99, -0.85, 6.66, 2.15, 1.41, 6.91, suppf,
2022-11-07,-2.14, -0.41, -0.52, 2.20, 1.45, 7.17, suppf,
2022-11-08,-4.20, -0.41, -0.97, 2.15, 1.41, 6.88, suppf,
2022-11-09,-4.11, -1.29, 0.40, 2.16, 1.41, 6.94, suppf,
2022-11-10,-2.68, 0.57, 2.73, 2.18, 1.44, 7.01, suppf,
2022-11-11,-2.80, 0.30, 7.04, 2.13, 1.42, 6.88, suppf,
2022-11-12,-2.45, 1.06, 8.25, 2.15, 1.41, 6.93, suppf,
2022-11-13,-2.31, 0.67, 8.12, 2.15, 1.41, 6.91, suppf,
2022-11-14,-2.12, -1.13, 5.09, 2.18, 1.42, 7.00, suppf,
2022-11-15,-1.89, -1.18, -0.62, 2.17, 1.44, 6.97, suppf,
2022-11-16,-1.39, -2.54, -7.38, 2.18, 1.45, 7.10, suppf,
2022-11-17,-1.03, -2.36, -13.01, 2.14, 1.41, 6.90, suppf,
2022-11-18,-3.94, -2.65, 0.89, 2.18, 1.43, 7.08, suppf,
2022-11-19,-2.78, -1.59, 2.10, 2.14, 1.40, 6.87, suppf,
2022-11-20,-3.14, -3.22, 5.25, 2.15, 1.40, 6.89, suppf,
2022-11-21,-3.90, -2.73, 1.06, 2.13, 1.40, 6.85, suppf,
2022-11-22,-4.27, -1.77, 7.29, 2.13, 1.40, 6.84, suppf,
2022-11-23,-3.76, -2.75, 12.41, 2.13, 1.41, 6.88, suppf,
2022-11-24,-4.43, -1.10, 4.22, 2.16, 1.42, 6.97, suppf,
2022-11-25,-2.50, -2.60, 11.08, 2.21, 1.45, 7.04, suppf,
2022-11-26,-3.38, -1.52, 9.33, 2.20, 1.45, 7.02, suppf,
2022-11-27,-2.55, -0.60, 5.58, 2.15, 1.42, 6.94, suppf,
2022-11-28,-3.41, -0.81, 8.40, 2.16, 1.45, 7.14, suppf,
2022-11-29,-4.84, -0.69, 5.69, 2.13, 1.41, 6.87, suppf,
2022-11-30,-0.95, 2.58, 8.70, 2.14, 1.41, 6.91, suppf,
2022-12-01,-4.39, -1.11, 12.96, 2.18, 1.43, 7.05, suppf,
2022-12-02,-5.18, 1.51, 24.60, 2.15, 1.41, 6.91, suppf,
2022-12-03,-4.32, 0.83, 17.23, 2.13, 1.41, 6.87, suppf,
2022-12-04,-2.19, -1.49, 3.50, 2.15, 1.41, 6.93, suppf,
2022-12-05,-5.45, 3.12, 8.80, 2.15, 1.42, 6.93, suppf,
2022-12-06,-3.43, -0.10, 4.24, 2.17, 1.42, 7.00, suppf,
2022-12-07,-4.97, 3.65, 17.63, 2.15, 1.42, 6.91, suppf,
2022-12-08,-3.31, 0.14, 7.52, 2.15, 1.41, 6.91, suppf,
2022-12-09,-4.68, 0.21, 10.55, 2.14, 1.41, 6.89, suppf,
2022-12-10,-5.07, -1.24, -2.15, 2.16, 1.42, 7.00, suppf,
2022-12-11,-2.83, 0.13, -3.32, 2.14, 1.42, 6.93, suppf,
2022-12-12,-3.63, -0.85, 6.99, 2.14, 1.41, 6.91, suppf,
2022-12-13,-2.96, -0.96, 0.81, 2.18, 1.44, 6.98, suppf,
2022-12-14,-4.14, -0.16, -0.62, 2.19, 1.43, 6.98, suppf,
2022-12-15,-4.05, 0.15, -1.32, 2.15, 1.42, 6.99, suppf,
2022-12-16,-3.53, 0.05, 2.35, 2.14, 1.42, 6.94, suppf,
2022-12-17,-1.18, -0.32, 2.29, 2.15, 1.41, 6.93, suppf,
2022-12-18,-1.64, -2.22, 1.98, 2.13, 1.40, 6.86, suppf,
2022-12-19,-2.75, -1.92, 2.26, 2.12, 1.40, 6.85, suppf,
2022-12-20,-1.99, -1.48, 6.60, 2.20, 1.45, 6.99, suppf,
2022-12-21,-1.97, -0.30, 1.00, 2.18, 1.45, 6.99, suppf,
2022-12-22,-2.39, -1.13, -3.62, 2.14, 1.41, 6.90, suppf,
2022-12-23,-3.06, -1.47, -3.69, 2.15, 1.41, 6.90, suppf,
2022-12-24,-2.85, -1.58, 0.74, 2.13, 1.41, 6.85, suppf,
2022-12-25,-2.60, -0.79, 3.17, 2.12, 1.41, 6.85, suppf,
2022-12-26,-5.22, -2.33, 2.36, 2.14, 1.41, 6.91, suppf,
2022-12-27,-3.93, -1.54, 8.58, 2.16, 1.45, 7.15, suppf,
2022-12-28,-3.47, -1.12, 4.59, 2.24, 1.47, 7.27, suppf,
2022-12-29,-3.04, -3.72, -1.93, 2.13, 1.41, 6.88, suppf,
2022-12-30,-4.01, -2.16, 11.13, 2.14, 1.41, 6.89, suppf,
2022-12-31,-3.34, -0.51, 2.89, 2.14, 1.42, 6.94, suppf,
2023-01-01,-2.69, -1.39, -5.73, 2.14, 1.42, 6.94, suppf,
2023-01-02,-2.35, -1.35, 2.56, 2.14, 1.41, 6.90, suppf,
2023-01-03,-2.39, -1.33, -0.12, 2.14, 1.41, 6.89, suppf,
2023-01-04,-2.59, -2.95, 2.38, 2.13, 1.40, 6.87, suppf,
2023-01-05,-3.79, -2.03, 5.43, 2.14, 1.41, 6.91, suppf,
2023-01-06,-2.44, -2.46, -0.24, 2.15, 1.41, 6.93, suppf,
2023-01-07,-2.32, -1.90, 1.73, 2.14, 1.41, 6.93, suppf,
2023-01-08,-2.90, -2.41, 1.20, 2.14, 1.41, 6.92, suppf,
2023-01-09,-1.55, -3.75, -0.94, 2.14, 1.41, 6.92, suppf,
2023-01-10,-1.60, -3.28, 2.98, 2.14, 1.41, 6.92, suppf,
2023-01-11,-1.61, -2.76, 3.83, 2.17, 1.44, 6.96, suppf,
2023-01-12,-0.58, -4.29, 3.94, 2.14, 1.41, 6.91, suppf,
2023-01-13,0.68, -3.85, -2.21, 2.14, 1.41, 6.93, suppf,
2023-01-14,-1.66, -3.08, -0.72, 2.14, 1.41, 6.93, suppf,
2023-01-15,-2.05, -2.76, 1.03, 2.13, 1.41, 6.89, suppf,
2023-01-16,-2.39, -2.92, 0.82, 2.14, 1.41, 6.90, suppf,
2023-01-17,-3.74, -2.67, 1.71, 2.13, 1.41, 6.89, suppf,
2023-01-18,-1.63, -3.03, 2.20, 2.13, 1.41, 6.91, suppf,
2023-01-19,-2.00, -4.06, -4.60, 2.14, 1.41, 6.92, suppf,
2023-01-20,-2.09, -3.50, -1.25, 2.18, 1.43, 6.95, suppf,
2023-01-21,-0.58, -3.43, 2.97, 2.19, 1.44, 6.99, suppf,
2023-01-22,-3.43, -3.36, -1.75, 2.27, 1.47, 7.11, suppf,
2023-01-23,-1.93, -3.80, -1.15, 2.20, 1.43, 7.01, suppf,
2023-01-24,-2.86, -4.90, -0.89, 2.19, 1.44, 7.00, suppf,
2023-01-25,-2.40, -2.52, -5.66, 2.23, 1.48, 7.19, suppf,
2023-01-26,-2.64, -3.54, -8.37, 2.23, 1.49, 7.27, suppf,
2023-01-27,-3.75, -3.51, -2.53, 2.20, 1.48, 7.16, suppf,
2023-01-28,-2.41, -4.44, -4.91, 2.19, 1.44, 7.01, suppf,
2023-01-29,-2.62, -4.96, -2.95, 2.25, 1.47, 7.21, suppf,
2023-01-30,-1.64, -3.81, -5.39, 2.23, 1.46, 7.14, suppf,
2023-01-31,-2.53, -4.54, -3.12, 2.23, 1.46, 7.14, suppf,
2023-02-01,-3.64, -2.47, 6.66, 2.22, 1.46, 7.11, suppf,
2023-02-02,-3.87, -4.63, -1.32, 2.22, 1.47, 7.12, suppf,
2023-02-03,-3.41, -4.94, 8.02, 2.20, 1.46, 7.04, suppf,
2023-02-04,-2.47, -4.40, 2.17, 2.19, 1.45, 7.02, suppf,
2023-02-05,1.10, -2.87, 28.89, 2.18, 1.44, 7.00, suppf,
2023-02-06,-1.54, -4.21, 4.46, 2.18, 1.46, 7.01, suppf,
2023-02-07,-2.64, -4.16, 4.35, 2.19, 1.45, 7.00, suppf,
2023-02-08,-3.23, -4.07, 5.73, 2.18, 1.44, 6.95, suppf,
2023-02-09,-4.37, -4.40, 7.51, 2.19, 1.45, 7.00, suppf,
2023-02-10,-2.24, -4.59, 1.47, 2.19, 1.45, 7.02, suppf,
2023-02-11,-3.10, -3.18, 8.32, 2.18, 1.44, 6.97, suppf,
2023-02-12,-2.49, -2.42, 14.65, 2.18, 1.44, 6.97, suppf,
2023-02-13,-1.41, -2.71, 8.68, 2.20, 1.48, 7.11, suppf,
2023-02-14,-2.05, -0.01, 3.41, 2.21, 1.48, 7.11, suppf,
2023-02-15,-3.80, -0.47, 21.00, 2.21, 1.47, 7.15, suppf,
2023-02-16,-1.96, -4.99, 3.17, 2.23, 1.48, 7.13, suppf,
2023-02-17,1.88, -6.48, -4.46, 2.23, 1.49, 7.15, suppf,
2023-02-18,-0.64, -6.19, -3.53, 2.19, 1.45, 7.00, suppf,
2023-02-19,-3.14, -1.26, 0.03, 2.17, 1.44, 6.95, suppf,
2023-02-20,-0.74, -3.09, 2.27, 2.18, 1.44, 6.98, suppf,
2023-02-21,-0.50, 0.47, 6.30, 2.21, 1.46, 7.12, suppf,
2023-02-22,-2.66, -1.83, -9.31, 2.18, 1.45, 7.03, suppf,
2023-02-23,-5.06, -0.70, -14.33, 2.23, 1.48, 7.23, suppf,
2023-02-24,-2.00, -2.51, 4.63, 2.18, 1.44, 6.99, suppf,
2023-02-25,-1.94, -3.02, 2.17, 2.17, 1.44, 6.96, suppf,
2023-02-26,-2.39, -2.02, 4.14, 2.18, 1.45, 7.01, suppf,
2023-02-27,-3.82, 1.53, 21.07, 2.26, 1.49, 7.20, suppf,
2023-02-28,-2.85, -1.91, 2.47, 2.21, 1.47, 7.13, suppf,
2023-03-01,-7.63, -3.04, 2.39, 2.19, 1.45, 7.02, suppf,
2023-03-02,-0.29, -1.49, 0.72, 2.18, 1.44, 6.98, suppf,
2023-03-03,-1.29, -2.33, 0.61, 2.20, 1.45, 7.05, suppf,
2023-03-04,0.01, -2.12, 0.48, 2.18, 1.45, 7.01, suppf,
2023-03-05,-0.21, -2.04, -5.91, 2.19, 1.44, 6.99, suppf,
2023-03-06,-2.32, -2.81, -5.81, 2.18, 1.44, 6.97, suppf,
2023-03-07,-1.88, -4.54, -9.08, 2.18, 1.44, 6.98, suppf,
2023-03-08,1.63, -2.05, -7.24, 2.19, 1.45, 7.02, suppf,
2023-03-09,-1.39, -0.47, -1.56, 2.26, 1.48, 7.18, suppf,
2023-03-10,-1.01, -2.37, 5.13, 2.25, 1.47, 7.14, suppf,
2023-03-11,-3.09, -0.88, 5.63, 2.18, 1.44, 6.98, suppf,
2023-03-12,-2.43, -0.22, 4.10, 2.20, 1.45, 7.01, suppf,
2023-03-13,-1.69, -1.01, 6.97, 2.18, 1.45, 7.00, suppf,
2023-03-14,-1.68, -0.55, 7.84, 2.21, 1.46, 7.08, suppf,
2023-03-15,-0.51, -2.14, 7.24, 2.17, 1.44, 6.95, suppf,
2023-03-16,-3.32, -0.50, 7.94, 2.17, 1.44, 6.95, suppf,
2023-03-17,-2.34, 0.25, 4.38, 2.18, 1.44, 6.98, suppf,
2023-03-18,-1.34, -0.30, 6.15, 2.17, 1.44, 6.93, suppf,
2023-03-19,-0.75, 0.25, 10.48, 2.15, 1.42, 6.85, suppf,
2023-03-20,0.04, 0.49, 2.13, 2.15, 1.43, 6.87, suppf,
2023-03-21,-1.85, 0.54, 3.85, 2.14, 1.43, 6.87, suppf,
2023-03-22,-0.84, -1.52, 2.91, 2.16, 1.43, 6.90, suppf,
2023-03-23,0.03, -3.11, 0.11, 2.20, 1.46, 7.21, suppf,
2023-03-24,-2.45, -0.93, 0.93, 2.20, 1.45, 7.07, suppf,
2023-03-25,0.42, 1.50, 1.64, 2.14, 1.42, 6.87, suppf,
2023-03-26,-2.38, -1.25, -2.55, 2.15, 1.44, 6.95, final,
2023-03-27,-0.31, -0.82, -4.11, 2.14, 1.42, 6.88, final,
2023-03-28,-1.41, -1.15, -0.36, 2.16, 1.42, 6.92, final,
2023-03-29,0.58, -2.67, -3.35, 2.22, 1.45, 7.02, final,
2023-03-30,0.89, -0.86, 1.59, 2.23, 1.46, 7.07, final,
2023-03-31,-0.82, -1.41, 6.60, 2.14, 1.42, 6.88, final,
2023-04-01,0.36, -3.54, 4.71, 2.15, 1.41, 6.89, final,
2023-04-02,-1.63, -0.72, 1.38, 2.15, 1.42, 6.88, final,
2023-04-03,-1.29, -0.73, -3.75, 2.19, 1.45, 7.14, final,
2023-04-04,-1.74, -0.99, -1.06, 2.18, 1.44, 7.09, final,
2023-04-05,-1.61, -0.65, 4.40, 2.14, 1.41, 6.83, final,
2023-04-06,-1.70, -2.78, 7.70, 2.21, 1.44, 7.01, final,
2023-04-07,-1.17, -2.70, 9.20, 2.16, 1.42, 6.93, final,
2023-04-08,-1.87, -1.97, 10.18, 2.15, 1.42, 6.86, final,
2023-04-09,-0.26, -1.89, 10.89, 2.15, 1.42, 6.88, final,
2023-04-10,-0.73, -0.49, 4.25, 2.16, 1.43, 6.91, final,
2023-04-11,-0.06, -2.16, -1.64, 2.17, 1.43, 6.94, final,
2023-04-12,-1.71, -2.42, 2.64, 2.16, 1.42, 6.90, final,
2023-04-13,0.09, -1.87, 3.01, 2.23, 1.46, 7.24, final,
2023-04-14,-2.86, -1.96, 3.30, 2.29, 1.50, 7.48, final,
2023-04-15,-2.80, -2.04, 4.69, 2.26, 1.48, 7.25, final,
2023-04-16,-1.11, -2.50, 11.52, 2.20, 1.44, 7.02, final,
2023-04-17,-2.59, -1.14, 4.76, 2.19, 1.43, 6.99, final,
2023-04-18,-0.90, -3.03, 6.63, 2.18, 1.42, 6.93, final,
2023-04-19,-0.43, -1.62, 2.37, 2.18, 1.44, 6.94, final,
2023-04-20,-0.46, -2.14, -7.77, 2.16, 1.42, 6.89, final,
2023-04-21,-1.03, -2.02, -5.56, 2.16, 1.42, 6.88, final,
2023-04-22,-2.05, -2.14, -2.79, 2.17, 1.42, 6.89, final,
2023-04-23,-3.66, -0.91, 3.86, 2.20, 1.43, 6.93, final,
2023-04-24,-1.64, -3.48, 1.13, 2.27, 1.47, 7.12, final,
2023-04-25,-1.39, -2.01, -6.40, 2.16, 1.42, 6.82, final,
2023-04-26,-3.04, -2.63, 1.20, 2.17, 1.42, 6.82, final,
2023-04-27,-2.89, -2.06, 3.45, 2.18, 1.42, 6.83, final,
2023-04-28,-1.09, -0.36, 3.28, 2.18, 1.42, 6.83, final,
2023-04-29,-2.71, -1.57, 4.75, 2.19, 1.42, 6.83, final,
2023-04-30,-2.01, -0.99, 1.45, 2.18, 1.42, 6.81, final,
2023-05-01,-1.33, -1.33, 3.48, 2.19, 1.42, 6.82, final,
2023-05-02,-2.80, -2.05, 0.55, 2.18, 1.43, 6.81, final,
2023-05-03,-2.17, -2.29, 3.08, 2.18, 1.42, 6.79, final,
2023-05-04,-2.59, -0.60, -2.26, 2.19, 1.42, 6.81, final,
2023-05-05,-1.64, -1.70, -0.91, 2.19, 1.42, 6.81, final,
2023-05-06,-1.23, -1.63, 4.40, 2.20, 1.43, 6.86, final,
2023-05-07,-1.44, -0.69, 4.00, 2.19, 1.41, 6.80, final,
2023-05-08,-2.52, -1.74, 1.84, 2.19, 1.42, 6.82, final,
2023-05-09,-3.06, -1.83, -3.17, 2.19, 1.41, 6.82, final,
2023-05-10,-2.50, -1.39, -4.83, 2.19, 1.41, 6.82, final,
2023-05-11,-2.14, -0.84, -6.74, 2.19, 1.41, 6.84, final,
2023-05-12,-1.12, -1.09, -2.20, 2.19, 1.41, 6.86, final,
2023-05-13,-1.33, -1.28, -1.51, 2.19, 1.41, 6.86, final,
2023-05-14,-2.77, -2.74, 4.58, 2.20, 1.42, 6.90, final,
2023-05-15,-0.80, -1.77, -2.76, 2.19, 1.41, 6.85, final,
2023-05-16,-1.96, -2.45, -7.46, 2.22, 1.44, 7.02, final,
2023-05-17,-1.46, -2.82, 0.23, 2.18, 1.41, 6.84, final,
2023-05-18,-0.12, -2.64, -1.67, 2.23, 1.44, 6.95, final,
2023-05-19,-0.35, -1.82, -5.15, 2.30, 1.49, 7.14, final,
2023-05-20,0.29, -1.17, -7.85, 2.22, 1.46, 7.03, final,
2023-05-21,-0.78, -1.40, -10.10, 2.23, 1.45, 7.04, final,
2023-05-22,-1.72, -1.72, -5.01, 2.22, 1.45, 6.99, final,
2023-05-23,-0.63, -1.16, -5.75, 2.18, 1.42, 6.83, final,
2023-05-24,-2.29, -1.98, -5.28, 2.19, 1.42, 6.85, final,
2023-05-25,0.46, -1.52, -4.25, 2.19, 1.42, 6.83, final,
2023-05-26,-1.60, -3.07, -2.35, 2.19, 1.43, 6.84, final,
2023-05-27,-1.80, -2.15, 6.10, 2.17, 1.42, 6.78, final,
2023-05-28,-0.41, -1.79, 0.69, 2.17, 1.42, 6.76, final,
2023-05-29,0.39, -2.77, -2.54, 2.17, 1.42, 6.80, final,
2023-05-30,-0.62, -2.60, 0.71, 2.18, 1.42, 6.81, final,
2023-05-31,-0.87, -2.70, -2.19, 2.18, 1.42, 6.81, final,
2023-06-01,0.44, -2.75, 6.32, 2.19, 1.43, 6.86, final,
2023-06-02,-0.66, -2.68, 7.76, 2.21, 1.45, 6.99, final,